AAUSat-5
1 40948U 98067GZ 15296.01730747 .00081402 00000-0 11015-2 0 9992
2 40948 51.6417 165.8801 0008094 77.8207 282.3691 15.56967764 2719
GomX-3
1 40949U 98067HA 15296.21218302 .00068505 00000-0 94311-3 0 9993
2 40949 51.6419 164.9321 0008491 77.5355 282.6587 15.56574176 2742
LQSat
1 40958U 15057A 15296.52682496 .00000457 00000-0 79438-4 0 9990
2 40958 98.0406 9.2477 0017820 190.8043 169.2788 14.72721096 2403
AO-85
1 40967U 15296.39702964 +.00003345 +00000-0 +36061-3 0 00196
2 40967 064.7805 246.6364 0218054 277.4590 223.9805 14.74306821002055
/EX
1
0
The normal Thursday AMSAT KEP distribution will be delayed one day until
Friday, 10-23-2015.
We are awaiting current TLE's for AO-85 (formally Fox-1A) before we
distribute.
We hope to have them tomorrow.
Ray Hoad
WA5QGD
1
0
SB KEPS @ AMSAT $ORB15288.N
2Line Orbital Elements 15288.AMSAT
HR AMSAT ORBITAL ELEMENTS FOR AMATEUR SATELLITES IN NASA FORMAT
FROM WA5QGD FORT WORTH,TX October 15, 2015
BID: ORB15288.N
DECODE 2-LINE ELSETS WITH THE FOLLOWING KEY:
1 AAAAAU 00 0 0 BBBBB.BBBBBBBB .CCCCCCCC 00000-0 00000-0 0 DDDZ
2 AAAAA EEE.EEEE FFF.FFFF GGGGGGG HHH.HHHH III.IIII JJ.JJJJJJJJKKKKKZ
KEY: A-CATALOGNUM B-EPOCHTIME C-DECAY D-ELSETNUM E-INCLINATION F-RAAN
G-ECCENTRICITY H-ARGPERIGEE I-MNANOM J-MNMOTION K-ORBITNUM Z-CHECKSUM
TO ALL RADIO AMATEURS BT
AO-07
1 07530U 74089B 15288.75617050 -.00000048 00000-0 -28664-4 0 9992
2 07530 101.5377 260.8690 0012408 68.3762 53.4153 12.53617039872363
FO-29
1 24278U 96046B 15287.87046431 -.00000026 00000-0 67836-5 0 9998
2 24278 098.5575 240.5633 0351308 120.5018 301.4148 13.53057559945949
SO-33
1 25509U 98061B 15288.36322752 .00000270 00000-0 42639-4 0 9996
2 25509 31.4318 290.0579 0347548 47.0989 315.8271 14.30077682886639
RS-22
1 27939U 03042A 15288.67222878 .00000304 00000-0 63457-4 0 9991
2 27939 97.8547 85.3190 0013461 10.3976 349.7494 14.66173472643845
HO-68
1 36122U 09072B 15288.63644347 -.00000059 00000-0 -43517-4 0 9993
2 36122 100.1816 329.0746 0007260 197.8983 162.1876 13.16329597280304
AO-73
1 39444U 13066AE 15288.74443823 .00000999 00000-0 13300-3 0 9996
2 39444 97.7174 347.0158 0060991 102.4288 258.3758 14.80519909101252
EO-79
1 40025U 14033R 15288.70980879 .00000966 00000-0 11277-3 0 9996
2 40025 97.9404 189.0824 0013515 143.9683 216.2446 14.87422934 71701
XW-2A
1 40903U 15049E 15288.63702060 .00001860 00000-0 97840-4 0 9990
2 40903 97.4559 296.3594 0024390 207.8265 291.7266 15.16664435 3897
XW-2C
1 40906U 15049H 15288.63740041 .00002108 00000-0 12533-3 0 9995
2 40906 97.4564 296.2099 0016571 159.9649 339.1176 15.12241127 3870
LILACSAT-2
1 40908U 15049K 15288.31165169 .00001296 00000-0 79610-4 0 9991
2 40908 97.4633 295.8933 0017153 154.1879 325.3102 15.11697900 3824
XW-2E
1 40909U 15049L 15288.36360159 .00002932 00000-0 17150-3 0 9991
2 40909 97.4571 295.9527 0015639 163.9416 309.4395 15.12530053 3832
UO-11
1 14781U 84021B 15288.31165529 .00000396 00000-0 55703-4 0 9994
2 14781 97.7874 342.3498 0009564 46.1639 314.0363 14.82531719699826
AO-16
1 20439U 90005D 15288.76180487 .00000069 00000-0 41440-4 0 9999
2 20439 98.5486 223.2272 0011126 158.7201 260.3148 14.32575356344001
LO-19
1 20442U 90005G 15288.32103387 .00000055 00000-0 35887-4 0 9992
2 20442 98.5191 221.9846 0012293 148.2410 211.9517 14.32765018344145
AO-27
1 22825U 93061C 15288.77196885 .00000042 00000-0 33704-4 0 9990
2 22825 98.7230 238.9928 0007759 322.4461 99.4644 14.29908380150175
IO-26
1 22826U 93061D 15288.78969545 .00000062 00000-0 41328-4 0 9996
2 22826 98.7173 239.1631 0008151 313.0602 46.9897 14.30227936150323
GO-32
1 25397U 98043D 15287.87355054 .00000016 00000-0 25632-4 0 9999
2 25397 098.5336 234.6379 0001453 029.1550 034.4603 14.23563331896599
NO-44
1 26931U 01043C 15287.93215298 .00000017 00000-0 38319-4 0 9997
2 26931 067.0512 228.1982 0006431 277.1217 082.9153 14.30348615732855
SO-50
1 27607U 02058C 15287.92271821 .00000317 00000-0 65560-4 0 9999
2 27607 064.5552 193.1502 0083003 265.4328 093.7289 14.74874678688811
CO-55
1 27844U 03031E 15288.72924040 .00000128 00000-0 77762-4 0 9998
2 27844 98.6962 295.5442 0008939 317.7751 42.2737 14.21855687637567
CO-57
1 27848U 03031J 15288.01542432 .00000102 00000-0 66832-4 0 9993
2 27848 98.7060 294.8098 0009008 328.3392 85.4739 14.21495203637371
AO-51
1 28375U 04025K 15288.65619604 .00000115 00000-0 47274-4 0 9992
2 28375 98.3021 225.6928 0082090 326.5683 33.0339 14.41704606593849
CP3
1 31129U 07012N 15288.35272641 .00000548 00000-0 12779-3 0 9996
2 31129 97.9962 249.0065 0095254 299.8761 216.0010 14.55983014450608
CO-65
1 32785U 08021C 15288.22792567 .00000757 00000-0 90017-4 0 9990
2 32785 97.6358 327.2994 0014170 35.9833 30.5650 14.87109859404071
PRISM
1 33493U 09002B 15288.68402545 .00001732 00000-0 16896-3 0 9997
2 33493 98.2414 131.9627 0015034 297.9291 62.0377 14.93815561364565
SOHLA-1
1 33496U 09002E 15287.99471800 .00000227 00000-0 44993-4 0 9991
2 33496 98.2290 57.0152 0007200 135.7794 290.1457 14.71441034360794
TISAT-1
1 36799U 10035E 15288.73111440 .00001663 00000-0 18303-3 0 9992
2 36799 98.0211 30.5748 0013249 166.6658 297.5260 14.88932096284893
STUDSAT
1 36801U 10035G 15287.94994830 .00017894 00000-0 94379-3 0 9990
2 36801 098.0743 054.4401 0006235 096.2976 263.8965 15.15611400285967
ALMASAT-1
1 38078U 12006B 15288.41181630 .00027387 33097-5 45678-3 0 9990
2 38078 69.4491 295.8890 0448259 90.1736 275.0823 14.85769042192858
CUBEBUG-1
1 39153U 13018D 15288.21032015 .00000767 00000-0 10969-3 0 9990
2 39153 98.0127 12.2155 0016367 221.9932 138.0025 14.79443835133225
ESTCUBE-1
1 39161U 13021C 15288.71470579 .00000499 00000-0 88863-4 0 9990
2 39161 98.0672 10.5648 0008596 295.0342 64.9968 14.71332743130967
DUCHIFAT-1
1 40021U 14033M 15288.72553967 .00001469 00000-0 16421-3 0 9993
2 40021 97.9426 189.6427 0014122 143.5585 216.6595 14.88435570 71731
NANOSATCBR1
1 40024U 14033Q 15288.68435618 .00001287 00000-0 14625-3 0 9995
2 40024 97.9405 189.2784 0013353 143.0544 217.1594 14.87966231 71713
DTUSAT-2
1 40030U 14033W 15288.69812018 .00001016 00000-0 11939-3 0 9991
2 40030 97.9389 188.7200 0013082 137.4835 222.7397 14.87051255 71687
ANTELSAT
1 40034U 14033AA 15288.63077158 .00000662 00000-0 10811-3 0 9991
2 40034 97.9270 177.9360 0060974 93.2928 267.5262 14.72931406 71026
MET-2/21
1 22782U 93055A 15288.11832735 .00000011 00000-0 -35625-5 0 9996
2 22782 82.5486 148.5153 0022242 347.8327 123.9145 13.83776882117185
OKEAN-4
1 23317U 94066A 15288.22479492 .00000537 00000-0 57290-4 0 9996
2 23317 82.5382 332.6649 0018558 293.5938 130.6150 14.86851898135143
NOAA-14
1 23455U 94089A 15287.91851578 .00000010 00000-0 27869-4 0 9993
2 23455 098.7455 006.8675 0010551 098.7577 313.6574 14.14054675072203
NOAA-15
1 25338U 98030A 15288.73109549 .00000051 00000-0 40530-4 0 9995
2 25338 98.7783 287.4837 0010663 172.8915 187.2417 14.25667061906017
RESURS
1 25394U 98043A 15287.90467661 -.00000041 00000-0 70804-6 0 9990
2 25394 98.4801 238.7491 0000522 343.6397 83.9010 14.24457838897329
FENGYUN1
1 25730U 99025A 15287.93662282 .00000250 00000-0 15620-3 0 9997
2 25730 98.9527 252.8281 0019559 158.8416 234.9632 14.13654156845977
OKEAN-0
1 25860U 99039A 15287.89205786 .00000297 00000-0 50501-4 0 9992
2 25860 098.1102 256.2457 0001010 070.1960 342.2316 14.76154690873530
NOAA-16
1 26536U 00055A 15288.32262497 .00000031 00000-0 40367-4 0 9999
2 26536 98.9302 354.1123 0009550 250.8283 109.1855 14.13111194776624
NOAA-17
1 27453U 02032A 15287.94584955 -.00000001 00000-0 17364-4 0 9997
2 27453 098.3531 268.0873 0011398 185.8278 174.2771 14.24902294691706
